Вернуться в каталог

STARLINK-2566

АктивенСвязьVLEO
NORAD 48287·PAYLOAD·🇺🇸 United States

Запущен Apr 29, 2021 с Cape Canaveral Space Force Station

Loading…

Ближайшие Пролёты (ближайшие 24 часа)

TLE

СвежийSource: CelesTrak SupGP

Эпоха: Sep 15, 2026, 01:09 UTC

1 48287C 21036M   26258.04840278  .00029575  00000+0  95039-3 0  2581
2 48287  53.1587 276.5770 0001295  89.4091 257.1222 15.31709265    13

Отслеживайте STARLINK-2566 в реальном времени с AllMySat

Download on the App Store